Regional Weather Roundup
Issued by NWS Pendleton, OR

Home | Current Version | Previous Version | Text Only | Print | Product List | Glossary On
Versions: 1 2 3 4 5 6 7 8 9 10 11 12 13 14 15 16 17 18 19 20 21 22 23 24 25 26 27 28 29 30 31 32 33 34 35 36 37 38 39 40 41 42 43 44 45 46 47 48 49 50
000
ASUS46 KPDT 050725
RWRPDT
PENDLETON REGIONAL WEATHER ROUNDUP
NATIONAL WEATHER SERVICE PENDLETON OREGON
1100 PM PST WED MAR 4 2015

NOTE: FAIR INDICATES FEW OR NO CLOUDS BELOW 12,000 FEET WITH NO
SIGNIFICANT WEATHER AND/OR OBSTRUCTIONS TO VISIBILITY.

# INDICATES UNOFFICIAL STATION AND DATA

WAZ520-050810-
EAST SLOPES OF WASHINGTON CASCADES

CITY            SKY/WX      TMP DP  RH  WIND    PRES   REMARKS
#BUMPING DAM    N/A         29  N/A N/A SE1     N/A
#CLE ELUM HS    N/A         32  22  66  CALM    30.17R
#CLE ELUM LAKE  N/A         39  24  54  CALM    30.28S
#CLIFFDEL 2NW   N/A         30  18  60  CALM    N/A
#GLENWOOD       N/A         25  22  88  CALM    30.32F
#MANASTASH CYN  N/A         31  22  69  CALM    30.18S
#NELSON         N/A         29  23  78  CALM    30.33S
#NELSON 3SW     N/A         32  26  78  CALM    30.52S
#NILE           N/A         28  25  88  CALM    29.58R
#RONALD 2NW     N/A         36  24  61  CALM    30.06R
#SNOWDEN        N/A         47   9  21  S6      N/A
#TEANAWAY 4NE   N/A         30  23  75  CALM    N/A
#TROUT LAKE 1NE N/A         32  26  78  N1      30.32S
$$

WAZ521-050810-
SIMCOE HIGHLANDS

CITY            SKY/WX      TMP DP  RH  WIND    PRES   REMARKS
#BICKLETON HS   N/A         38  10  31  CALM    N/A
#CENTERVILLE 4W N/A         37  25  61  CALM    29.98S
#GOLDENDALE     N/A         34  22  61  E2      N/A
#GOLDENDALE 1NE N/A         32  13  45  N7      N/A
#GOLDENDALE 5WNWN/A         N/A N/A N/A S7      30.24S
#GOODNOE HILLS  N/A         43  25  49  NW3     N/A
#LYLE 6NE       N/A         37  26  64  CALM    30.26S
$$

WAZ026-050810-
KITTITAS VALLEY

CITY            SKY/WX      TMP DP  RH  WIND    PRES   REMARKS
ELLENSBURG AP   CLOUDY      33  24  69  E5      30.24R
#ELLENSBURG CWU N/A         32  24  72  CALM    30.24S
#ELLENSBURG 3NE N/A         33  24  69  N1      30.23R
#ELLENSBURG 1E  N/A         30  23  75  CALM    N/A
#KITTITAS 4N    N/A         34  22  61  E1      28.54S
#KITTITAS 3S    N/A         25  22  88  CALM    30.29S
#THORP 6N       N/A         34  23  64  CALM    30.32S
$$

WAZ027-050810-
YAKIMA VALLEY

CITY            SKY/WX      TMP DP  RH  WIND    PRES   REMARKS
SUNNYSIDE AP    PTCLDY      30  21  69  CALM    30.27R
YAKIMA AIRPORT  MOCLDY      34  26  72  NW7     30.26S
YAKIMA-VAGABOND MOCLDY      34  25  69  SE2     30.25S
#DONALD 2NE     N/A         43  16  33  CALM    29.10S
#MABTON         N/A         36  25  64  CALM    30.26S
#NACHES 2SW     N/A         39  28  64  W2      30.23S
#OUTLOOK DOT    N/A         N/A N/A N/A CALM    N/A
#SELAH 8E       N/A         28  20  71  E5      N/A
#TERRACE HTS    N/A         33  25  72  CALM    30.28R
#WAPATO 4NE     N/A         43  16  33  CALM    29.10S
#WEST VALLEY    N/A         33  27  78  CALM    30.29R
#W YAKIMA       N/A         38  28  67  W1      30.29S
#WHITE SWAN 5E  N/A         32  27  82  N1      30.30R
#WILEY CITY 3W  N/A         35  27  72  W2      30.26R
$$

WAZ028-050810-
LOWER COLUMBIA BASIN...WASHINGTON

CITY            SKY/WX      TMP DP  RH  WIND    PRES   REMARKS
PASCO           CLEAR       29  21  72  N5      30.28S
PROSSER AWOS    N/A         30  23  75  SE1     30.30R
RICHLAND AWOS   CLEAR       34  21  58  S3      30.28R
#BASIN CITY 5SW N/A         29  19  66  NE7     30.27R
#BENTON CITY    N/A         37  20  50  NW5     30.19S
#CONNELL 5N     N/A         33  20  58  NE1     30.30S
#CONNELL 5NW    N/A         30  20  66  NE3     30.26S
#ELTOPIA        N/A         34  18  51  NE2     30.25S
#ELTOPIA 6NW    N/A         40  15  36  SE1     29.21S
#KAHLOTUS       N/A         33  19  56  S8      30.31S
#KENNEWICK 3S   N/A         38  16  40  CALM    30.29R
#PASCO-BROADMOORN/A         35  14  41  E1      30.21R
#PATERSON       N/A         35  27  72  CALM    30.27S
#PROSSER        N/A         39  17  40  CALM    30.28S
#SAGEMOOR 2W    N/A         31  19  61  CALM    30.14S
#TOUCHET 2S     N/A         23  16  74  CALM    30.28S
#WEST PASCO     N/A         34  17  49  NE1     30.29S
$$

WAZ029-050810-
FOOTHILLS OF THE BLUES...WASHINGTON

CITY            SKY/WX      TMP DP  RH  WIND    PRES   REMARKS
WALLA WALLA AP  PTCLDY      38  16  40  E7      30.24S
#DAYTON SCHOOL  N/A         31  10  41  N1      30.26S
#LOWDEN 2SE     N/A         31  22  69  CALM    30.24S
#PLEASANT VIEW 1N/A         34  16  47  CALM    30.35S
#PRESCOTT       N/A         34  21  58  E3      30.29S
#SUDBURY        N/A         29  N/A N/A CALM    N/A
#WHITMAN COLLEGEN/A         39  19  44  CALM    30.32S
#WAITSBURG 5S   N/A         37  16  42  NE7     30.38F
#WAITSBURG 8N   N/A         32  -2  22  N1      30.06F
#WALLA WALLA 5E N/A         36  20  52  NE5     N/A
#WALLA WALLA U  N/A         35  22  59  CALM    30.28S
#WHITMAN MISSIONN/A         30  23  75  CALM    30.30S
$$

WAZ030-050810-
BLUE MOUNTAINS...WASHINGTON

CITY            SKY/WX      TMP DP  RH  WIND    PRES   REMARKS
#DIXIE 5SE      N/A         44   4  19  NE1     30.16S
#SKI BLUEWOOD   N/A         25  13  60  SW2     30.20S
$$

ORZ009-041-WAZ024-050810-
COLUMBIA RIVER GORGE

CITY            SKY/WX      TMP DP  RH  WIND    PRES   REMARKS
HOOD RIVER AP   CLEAR       34  30  85  CALM    30.29R
THE DALLES AP   CLEAR       35  27  72  E5      30.29R
#ARLINGTON AIRPON/A         42  28  57  NW3     30.00F
#ARLINGTON HS   N/A         34  26  72  N2      30.21S
#CELILO DOT     N/A         40  24  52  CALM    N/A
#MOSIER 1S      N/A         35  22  59  CALM    30.27S
#MURDOCK        N/A         41  33  73  W1      30.31S
#RUFUS DOT      N/A         39  26  59  S8      N/A

$$

ORZ510-050810-
NORTH CENTRAL OREGON

CITY            SKY/WX      TMP DP  RH  WIND    PRES   REMARKS
#CHENOWITH 1W   N/A         40  26  57  NW5     N/A
#COW CYN RST AREN/A         41  19  41  SE1     N/A
#DUFUR 9E       N/A         42  26  53  CALM    30.32F
#GRASS VALLEY 1SN/A         35  22  59  S5      30.29F
#KENT DOT       N/A         36  13  38  S3      N/A
#MAUPIN SCHOOL  N/A         36  24  61  CALM    30.28S
#MORO SCHOOL    N/A         30  26  85  SW2     30.24S
#SHANIKO 5WSW   N/A         40  12  31  SE7     N/A
#SHANIKO 4NW    N/A         41  16  36  SW1     30.22R
#TYGH VALLEY 2NEN/A         33  25  72  CALM    30.30R
#WAPANITIA AIRPON/A         32  23  69  W2      30.32S
#WASCO DOT      N/A         29  26  88  E1      N/A
#WASCO 5NE      N/A         27  23  85  CALM    30.30F
$$

ORZ511-050810-
CENTRAL OREGON

CITY            SKY/WX      TMP DP  RH  WIND    PRES   REMARKS
BEND AIRPORT    CLEAR       28  16  60  SE6     30.23F
MADRAS AIRPORT  CLEAR       28  21  75  SE7     30.26R
PRINEVILLE AP   CLEAR       27  18  68  E3      30.25R
REDMOND AIRPORT CLEAR       25  15  65  NE3     30.24R
#BEND 6E        N/A         30  13  49  CALM    30.28F
#BEND 1SW       N/A         29  20  69  W2      N/A
#BEND-AWBREY    N/A         38  18  44  S7      30.31F
#BEND-KIM LN    N/A         35  20  54  SW6     30.21S
#CROOKED RVR RANN/A         33  19  56  S1      30.32R
#CULVER         N/A         33  20  58  CALM    30.20S
#LAKE BILLY CHINN/A         34   9  35  CALM    30.33R
#POWELL BUTTE 3EN/A         37  16  42  SE3     N/A
#POWELL BUTTE   N/A         34  15  45  CALM    29.85S
#PRINEVILLE 3N  N/A         25  18  74  E2      30.31S
#WARM SPRINGS   N/A         34  25  69  CALM    30.23R

$$


ORZ509-050810-
EAST SLOPES OF OREGON CASCADES

CITY            SKY/WX      TMP DP  RH  WIND    PRES   REMARKS
#BLUE BOX PASS  N/A         37  -12 11  CALM    N/A
#CAMP SHERMAN   N/A         24  16  71  CALM    30.35F
#LA PINE DOT    N/A         25  13  60  CALM    N/A
#LA PINE 4NW    N/A         24  16  71  CALM    30.41R
#LAVA BUTTE DOT N/A         27  16  63  CALM    N/A
#MT BACHELOR-MIDN/A         35   6  29  S22     N/A    WCI 23
#SISTERS AIRPOR N/A         24  20  84  CALM    30.17S
#SISTERS ODOT   N/A         25  N/A N/A CALM    N/A
#SISTERS 3N     N/A         23   7  50  CALM    30.25S
#SUNRIVER       N/A         26  19  74  CALM    30.27R
#TUMALO 3W      N/A         42  12  29  CALM    30.18S
#WANOGA BUTTE D N/A         35   8  32  W6      N/A

$$

ORZ044-050810-
LOWER COLUMBIA BASIN...OREGON

CITY            SKY/WX      TMP DP  RH  WIND    PRES   REMARKS
HERMISTON       PTCLDY      26  16  65  S7      30.26S
#BOARDMAN 8SW   N/A         32  25  75  SW3     30.28S
#IONE SCHOOL    N/A         32  19  58  CALM    30.24S
#IRRIGON 4NW    N/A         28  22  78  SE3     N/A
#UMATILLA SCHOOLN/A         28  24  85  CALM    30.34R
#UMATILLA       N/A         35  17  47  CALM    30.25R
$$

ORZ507-050810-
NORTHERN FOOTHILLS OF THE BLUES

CITY            SKY/WX      TMP DP  RH  WIND    PRES   REMARKS
PENDLETON AIRPT PTCLDY      35  18  49  SE9     30.24S
#ADAMS 3WNW     N/A         28  18  66  CALM    30.32S
#ATHENA         N/A         40  15  36  E1      30.32S
#CAYUSE         N/A         41  18  39  E3      30.27S
#HELIX SCHOOL   N/A         28  18  66  CALM    30.30F
#HELIX 3N       N/A         37  15  40  SE7     30.19S
#HOLDMAN 5SE    N/A         29  21  72  CALM    30.24S
#HOLDMAN 6E     N/A         33  16  49  CALM    30.10S
#M-F FERNDALE   N/A         30  18  60  CALM    30.23S
#M-F GROVE ELEM N/A         39  13  34  CALM    30.22S
#M-FREEWATER 5SEN/A         42  17  36  E8      30.22F
#PENDLETON DNTN N/A         31   9  39  CALM    30.25S
#PENDLETON 5NE  N/A         29  19  66  CALM    30.19S
#PDT SUNRIDGE   N/A         26  19  74  CALM    30.27R
#PENDLETON 7NW  N/A         30  19  63  E6      N/A
#PILOT ROCK     N/A         30  15  53  CALM    30.25S
#TUTUILLA       N/A         24  18  77  CALM    30.29S
#UMAPINE 2E     N/A         33  20  58  CALM    30.22S
#WESTON SCHOOL  N/A         46   6  19  SW5     30.23S

$$

ORZ508-050810-
SOUTHERN FOOTHILLS OF THE BLUES

CITY            SKY/WX      TMP DP  RH  WIND    PRES   REMARKS
LEXINGTON       CLEAR       36  21  54  SE9     30.26S
#AJAX           N/A         41  15  34  CALM    30.15S
#CONDON SCHOOL  N/A         36  23  59  CALM    30.17S
#CONDON 5W      N/A         40  15  36  SW5     30.19S
#FOSSIL SCHOOL  N/A         30  20  66  CALM    30.20R
#HEPPNER EOC    N/A         35  20  54  SE10    30.26R
#HEPPNER 4NE    N/A         39  17  40  CALM    30.30S
#LEXINGTON 2SE  N/A         36  21  54  SE6     30.22S
#MIKKALO        N/A         31  22  69  NE3     30.23S
#OLEX 4N        N/A         33  27  78  S7      30.23S
#RUGGS 5NE      N/A         35  14  41  N1      30.40S
#RUGGS 2SW      N/A         39  17  40  SW10    30.32S

$$

ORZ502-503-050810-
BLUE MOUNTAINS

CITY            SKY/WX      TMP DP  RH  WIND    PRES   REMARKS
MEACHAM         PTCLDY      24  15  68  CALM    30.24S
#BATTLE MTN DOT N/A         35  15  43  SE5     N/A
#HEPPNER 15SE   N/A         29  20  69  CALM    30.15R
#LADD CYN SMT   N/A         30  10  42  E14     N/A    WCI 19
#LADD CREEK ODOTN/A         28  16  60  SW3     N/A
#LONG CREEK HS  N/A         33  20  58  CALM    30.20R
#N POWDER DOT   N/A         21  17  84  SW2     N/A
#PIKES PEAK     N/A         43   6  21  S13     27.99S WCI 36
#TROY SCHOOL    N/A         27  20  74  CALM    30.24R
#UKIAH          N/A         22  19  88  CALM    30.46R
#WESTON 4E      N/A         38  11  32  SE6     30.28S
$$

ORZ505-050810-
JOHN DAY BASIN

CITY            SKY/WX      TMP DP  RH  WIND    PRES   REMARKS
JOHN DAY        CLEAR       32  20  61  SE8     30.28R
#JOHN DAY KJDY  N/A         28  25  88  NE3     30.28R
#DAYVILLE SCHOOLN/A         32  19  58  CALM    30.25R
#MONUMENT HS    N/A         27  18  68  CALM    30.28R
#MT. VERNON 5SE N/A         36  17  45  E2      30.21R
#SPRAY SCHOOL   N/A         27  N/A N/A CALM    N/A
#WINLOCK        N/A         32  14  47  N5      30.31R
$$

ORZ506-050810-
OCHOCO AND JOHN DAY HIGHLANDS

CITY            SKY/WX      TMP DP  RH  WIND    PRES   REMARKS
#BUCK CREEK DOT N/A         36  36  100 E7      N/A
#HORSE RIDGE DO N/A         24  18  77  CALM    N/A
#KEYES SMT DOT  N/A         34  14  43  CALM    N/A
#PAULINA SCHOOL N/A         20  16  84  CALM    30.21R
#PINE MTN OBS   N/A         36   2  23  S8      N/A
#PRAIRIE CITY   N/A         21  12  68  CALM    30.53R
#SENECA         N/A         18  N/A N/A CALM    N/A
#SENECA 9NW     N/A         19  14  80  CALM    30.50R
$$

ORZ049-050810-
GRANDE RONDE VALLEY

CITY            SKY/WX      TMP DP  RH  WIND    PRES   REMARKS
LA GRANDE       CLEAR       30  10  42  SE5     30.26R
#COVE           N/A         29  18  63  CALM    30.26R
#COVE SCHOOL    N/A         30  17  58  CALM    30.22S
#ELGIN 3N       N/A         22   5  47  CALM    30.24S
#ELGIN 1E       N/A         27  16  63  CALM    N/A
#IMBLER SCHOOL  N/A         25  15  65  CALM    30.22R
#ISLAND CITY 4N N/A         38  32  79  CALM    30.27R
#LADD CYN DOT   N/A         38  11  32  SE15G26 N/A    WCI 29
#UNION 1S       N/A         36  15  42  E14     30.31S WCI 27
$$

ORZ050-050810-
WALLOWA COUNTY

CITY            SKY/WX      TMP DP  RH  WIND    PRES   REMARKS
JOSEPH AIRPORT  CLEAR       27  16  63  S5      30.24F
#ENTERPRISE HS  N/A         24  17  74  CALM    30.24S
#IMNAHA SCHOOL  N/A         30  21  69  S2      30.29F
#IMNAHA 10S     N/A         31  16  53  SW7     30.25F
#JOSEPH 3N      N/A         22  13  68  CALM    30.24S
#JOSEPH 3W      N/A         30   7  37  SW2     30.04F
#LOSTINE        N/A         24  14  65  CALM    30.21S
#MT HOWARD 8000 N/A         29   3  32  W7      30.16S
#PROMISE 1S     N/A         27  13  55  CALM    30.48S
#SHEEP RDG 7000 N/A         31   7  36  CALM    30.45F
#WALLOWA SCHOOL N/A         24  14  65  CALM    31.42R



$$



USA.gov is the U.S. government's official web portal to all federal, state and local government web resources and services.